Previsão horária em Ploschany

Hoje, 8 Março, Segunda-feira

Tempo Temperatura Precipitação Vento Pressão Humidade
00:00 -10°C° 0 mm 3 m/s 736 mmHg 90%
01:00 -10°C° 0 mm 3 m/s 737 mmHg 91%
02:00 -10°C° 0 mm 3 m/s 738 mmHg 92%
03:00 -12°C° 0 mm 3 m/s 738 mmHg 91%
04:00 -12°C° 0 mm 3 m/s 739 mmHg 91%
05:00 -12°C° 0 mm 4 m/s 740 mmHg 90%
06:00 -14°C° 0 mm 4 m/s 741 mmHg 90%
07:00 -14°C° 0 mm 4 m/s 741 mmHg 89%
08:00 -14°C° 0 mm 4 m/s 742 mmHg 88%
09:00 -12°C° 0 mm 4 m/s 743 mmHg 85%
10:00 -12°C° 0 mm 4 m/s 743 mmHg 82%
11:00 -10°C° 0 mm 3 m/s 744 mmHg 80%
12:00 -9°C° 0 mm 3 m/s 745 mmHg 76%
13:00 -9°C° 0 mm 4 m/s 745 mmHg 72%
14:00 -9°C° 0 mm 4 m/s 746 mmHg 69%
15:00 -8°C° 0 mm 3 m/s 746 mmHg 71%
16:00 -9°C° 0 mm 3 m/s 746 mmHg 74%
17:00 -9°C° 0 mm 3 m/s 747 mmHg 77%
18:00 -10°C° 0 mm 3 m/s 747 mmHg 81%
19:00 -12°C° 0 mm 2 m/s 748 mmHg 85%
20:00 -13°C° 0 mm 2 m/s 748 mmHg 89%
21:00 -13°C° 0 mm 2 m/s 748 mmHg 89%
22:00 -14°C° 0 mm 2 m/s 749 mmHg 90%
23:00 -12°C° 0 mm 1 m/s 749 mmHg 91%

Amanhã, 9 Março, Terça-feira

Tempo Temperatura Precipitação Vento Pressão Humidade
00:00 -13°C° 0 mm 1 m/s 749 mmHg 91%
01:00 -13°C° 0 mm 1 m/s 749 mmHg 91%
02:00 -13°C° 0 mm 1 m/s 749 mmHg 91%
03:00 -13°C° 0 mm 1 m/s 749 mmHg 91%
04:00 -13°C° 0 mm 1 m/s 749 mmHg 91%
05:00 -13°C° 0 mm 0 m/s 749 mmHg 91%
06:00 -13°C° 0 mm 0 m/s 750 mmHg 90%
07:00 -12°C° 0 mm 0 m/s 750 mmHg 89%
08:00 -11°C° 0 mm 0 m/s 750 mmHg 88%
09:00 -10°C° 0 mm 1 m/s 750 mmHg 86%
10:00 -9°C° 0 mm 1 m/s 750 mmHg 84%
11:00 -8°C° 0 mm 1 m/s 750 mmHg 82%
12:00 -8°C° 0.2 mm 2 m/s 750 mmHg 85%
13:00 -8°C° 0.2 mm 2 m/s 750 mmHg 87%
14:00 -8°C° 0.2 mm 3 m/s 750 mmHg 90%
15:00 -9°C° 0.6 mm 3 m/s 750 mmHg 91%
16:00 -10°C° 0.6 mm 4 m/s 749 mmHg 92%
17:00 -10°C° 0.6 mm 4 m/s 749 mmHg 93%
18:00 -11°C° 0.8 mm 4 m/s 749 mmHg 93%
19:00 -11°C° 0.8 mm 4 m/s 750 mmHg 93%
20:00 -13°C° 0.8 mm 5 m/s 750 mmHg 93%
21:00 -13°C° 0.5 mm 5 m/s 750 mmHg 93%
22:00 -14°C° 0.5 mm 5 m/s 750 mmHg 93%
23:00 -15°C° 0.5 mm 5 m/s 750 mmHg 92%

Depois de amanhã, 10 Março, Quarta-feira

Tempo Temperatura Precipitação Vento Pressão Humidade
00:00 -15°C° 0.5 mm 5 m/s 751 mmHg 93%
01:00 -15°C° 0.5 mm 5 m/s 751 mmHg 93%
02:00 -17°C° 0.5 mm 5 m/s 751 mmHg 93%
03:00 -17°C° 0.4 mm 5 m/s 751 mmHg 92%
04:00 -17°C° 0.4 mm 5 m/s 752 mmHg 91%
05:00 -17°C° 0.4 mm 5 m/s 752 mmHg 91%
06:00 -18°C° 0.2 mm 5 m/s 752 mmHg 89%
07:00 -18°C° 0.2 mm 5 m/s 753 mmHg 86%
08:00 -18°C° 0.2 mm 5 m/s 753 mmHg 84%
09:00 -17°C° 0 mm 5 m/s 754 mmHg 79%
10:00 -15°C° 0 mm 5 m/s 754 mmHg 74%
11:00 -15°C° 0 mm 5 m/s 754 mmHg 70%
12:00 -14°C° 0 mm 5 m/s 754 mmHg 68%
13:00 -13°C° 0 mm 5 m/s 754 mmHg 66%
14:00 -12°C° 0 mm 5 m/s 754 mmHg 64%
15:00 -13°C° 0 mm 5 m/s 754 mmHg 66%
16:00 -13°C° 0 mm 5 m/s 754 mmHg 68%
17:00 -14°C° 0 mm 4 m/s 754 mmHg 70%
18:00 -14°C° 0 mm 5 m/s 754 mmHg 72%
19:00 -15°C° 0 mm 5 m/s 754 mmHg 73%
20:00 -15°C° 0 mm 5 m/s 754 mmHg 75%
21:00 -15°C° 0 mm 5 m/s 754 mmHg 77%
22:00 -15°C° 0 mm 5 m/s 754 mmHg 79%
23:00 -17°C° 0 mm 5 m/s 754 mmHg 81%

11 Março, Quinta-feira

Tempo Temperatura Precipitação Vento Pressão Humidade
00:00 -17°C° 0.2 mm 5 m/s 753 mmHg 84%
01:00 -17°C° 0.2 mm 5 m/s 753 mmHg 87%
02:00 -17°C° 0.2 mm 5 m/s 753 mmHg 90%
03:00 -17°C° 0.4 mm 5 m/s 753 mmHg 91%
04:00 -16°C° 0.4 mm 4 m/s 752 mmHg 92%
05:00 -16°C° 0.4 mm 4 m/s 752 mmHg 93%
06:00 -16°C° 0.1 mm 4 m/s 752 mmHg 92%
07:00 -15°C° 0.1 mm 4 m/s 752 mmHg 92%
08:00 -15°C° 0.1 mm 4 m/s 752 mmHg 91%
09:00 -14°C° 0.1 mm 4 m/s 751 mmHg 91%
10:00 -11°C° 0.1 mm 4 m/s 751 mmHg 90%
11:00 -10°C° 0.1 mm 4 m/s 751 mmHg 89%
12:00 -9°C° 0 mm 4 m/s 751 mmHg 88%
13:00 -8°C° 0 mm 5 m/s 750 mmHg 87%
14:00 -6°C° 0 mm 5 m/s 750 mmHg 86%
15:00 -6°C° 0 mm 5 m/s 749 mmHg 85%
16:00 -6°C° 0 mm 5 m/s 749 mmHg 83%
17:00 -6°C° 0 mm 5 m/s 748 mmHg 82%
18:00 -7°C° 0 mm 5 m/s 747 mmHg 84%
19:00 -8°C° 0 mm 5 m/s 747 mmHg 86%
20:00 -10°C° 0 mm 5 m/s 746 mmHg 88%
21:00 -10°C° 0 mm 6 m/s 746 mmHg 88%
22:00 -10°C° 0 mm 6 m/s 745 mmHg 88%
23:00 -10°C° 0 mm 6 m/s 745 mmHg 88%

12 Março, Sexta-feira

Tempo Temperatura Precipitação Vento Pressão Humidade
00:00 -10°C° 0 mm 6 m/s 744 mmHg 88%
01:00 -10°C° 0 mm 6 m/s 743 mmHg 88%
02:00 -10°C° 0 mm 6 m/s 742 mmHg 88%
03:00 -11°C° 0 mm 7 m/s 741 mmHg 88%
04:00 -12°C° 0 mm 7 m/s 740 mmHg 88%
05:00 -12°C° 0 mm 7 m/s 739 mmHg 88%
06:00 -12°C° 0.3 mm 7 m/s 738 mmHg 89%
07:00 -12°C° 0.3 mm 7 m/s 737 mmHg 90%
08:00 -12°C° 0.3 mm 7 m/s 736 mmHg 90%
09:00 -11°C° 0.2 mm 7 m/s 736 mmHg 90%
10:00 -11°C° 0.2 mm 7 m/s 735 mmHg 90%
11:00 -9°C° 0.2 mm 7 m/s 735 mmHg 90%
12:00 -8°C° 0.3 mm 6 m/s 734 mmHg 91%
13:00 -8°C° 0.3 mm 6 m/s 734 mmHg 91%
14:00 -6°C° 0.3 mm 6 m/s 733 mmHg 92%
15:00 -6°C° 0.5 mm 5 m/s 733 mmHg 93%
16:00 -6°C° 0.5 mm 5 m/s 733 mmHg 94%
17:00 -6°C° 0.5 mm 5 m/s 732 mmHg 95%
18:00 -5°C° 0.2 mm 4 m/s 732 mmHg 95%
19:00 -5°C° 0.2 mm 4 m/s 732 mmHg 95%
20:00 -5°C° 0.2 mm 3 m/s 732 mmHg 96%
21:00 -4°C° 0.2 mm 3 m/s 732 mmHg 96%
22:00 -2°C° 0.2 mm 3 m/s 732 mmHg 97%
23:00 -2°C° 0.2 mm 2 m/s 732 mmHg 98%

13 Março, Sábado

Tempo Temperatura Precipitação Vento Pressão Humidade
00:00 -2°C° 0.1 mm 2 m/s 732 mmHg 98%
01:00 -1°C° 0.1 mm 3 m/s 732 mmHg 98%
02:00 -1°C° 0.1 mm 3 m/s 731 mmHg 98%
03:00 -1°C° 0 mm 3 m/s 732 mmHg 98%
04:00 -1°C° 0 mm 3 m/s 732 mmHg 98%
05:00 -1°C° 0 mm 3 m/s 732 mmHg 97%
06:00 -1°C° 0.1 mm 2 m/s 732 mmHg 98%
07:00 -1°C° 0.1 mm 2 m/s 732 mmHg 99%
08:00 +1°C° 0.1 mm 1 m/s 733 mmHg 99%
09:00 +1°C° 0.1 mm 1 m/s 733 mmHg 99%
10:00 +1°C° 0.1 mm 1 m/s 734 mmHg 99%
11:00 +1°C° 0.1 mm 1 m/s 735 mmHg 99%
12:00 +1°C° 0.1 mm 2 m/s 735 mmHg 99%
13:00 +1°C° 0.1 mm 2 m/s 736 mmHg 99%
14:00 0°C° 0.1 mm 3 m/s 736 mmHg 99%
15:00 0°C° 0.3 mm 3 m/s 737 mmHg 99%
16:00 -1°C° 0.3 mm 3 m/s 737 mmHg 98%
17:00 -1°C° 0.3 mm 3 m/s 738 mmHg 98%
18:00 -1°C° 0.1 mm 3 m/s 738 mmHg 97%
19:00 -1°C° 0.1 mm 3 m/s 738 mmHg 95%
20:00 -1°C° 0.1 mm 2 m/s 739 mmHg 94%
21:00 -1°C° 0 mm 2 m/s 739 mmHg 94%
22:00 -2°C° 0 mm 2 m/s 739 mmHg 93%
23:00 -2°C° 0 mm 2 m/s 740 mmHg 93%
Mostrar mais

Necessitamos do seu Consentimento

A Meteoprog e os seus Fornecedores de Serviços podem armazenar e aceder a dados pessoais como cookies, identificadores do dispositivo ou outras tecnologias semelhantes existentes no seu dispositivo e processar estes dados para personalizar conteúdos e anúncios, assim como funcionalidades nas redes sociais e análise de tráfego.

  • Armazenar e/ou aceder a informações no seu dispositivo

    Os cookies, identificadores do dispositivo ou outras informações podem ser armazenados ou acedidos no seu dispositivo, para os fins acima indicados.

  • Anúncios e conteúdos personalizados, medição de anúncios e conteúdos, dados sobre o público-alvo e desenvolvimento de produtos

    Os anúncios e os conteúdos podem ser personalizados com base num perfil. Podem ser adicionados dados adicionais para uma maior personalização dos anúncios e dos conteúdos. A eficácia dos anúncios e dos conteúdos pode ser medida. Podem ser obtidas informações sobre o público que visualizou os anúncios e os conteúdos. Estes dados podem ser usados para desenvolver ou melhorar sistemas, softwares ou a experiência do utilizador.

Ao clicar em "Eu concordo”, permitirá o uso de cookies, identificadores do dispositivo e web beacons mencionados ou outras tecnologias semelhantes. As configurações do navegador do seu dispositivo podem ser alteradas.

Para certos fins, podem ser invocados interesses legítimos ao invés de consentimento. Pode ler mais informação sobre este assunto na nossa Política de Privacidade e Cookies.